📊 Raw Sensor Data

Showing records 39076 to 39100 of 84,940 total

ID Distance (ft) Battery V Battery A Int Temp (°F) Int Humid (%) Ext Temp (°F) Solar V RSSI SNR Time Stamp
45877 15.5 3.90 0 58 42 68 4.50 -71 7 07/10/2025 06:45 AM
45876 15.5 3.95 0 56 43 61 4.50 -71 8 07/10/2025 06:30 AM
45875 15.4 3.89 0 54 43 57 4.50 -71 8 07/10/2025 06:15 AM
45874 15.4 3.87 -9 53 43 56 4.50 -72 9 07/10/2025 06:00 AM
45873 15.4 3.88 -8 53 43 56 1.70 -71 8 07/10/2025 05:45 AM
45872 15.7 3.88 -5 53 44 55 0.20 -71 8 07/10/2025 05:30 AM
45871 15.4 3.94 -5 53 43 55 0.00 -72 8 07/10/2025 05:15 AM
45870 15.4 3.88 -5 53 44 56 0.00 -72 7 07/10/2025 05:00 AM
45869 15.4 3.88 -5 53 44 55 0.10 -71 7 07/10/2025 04:45 AM
45868 15.4 3.88 -5 53 44 55 0.00 -71 8 07/10/2025 04:30 AM
45867 15.4 3.94 -5 53 44 54 0.00 -71 8 07/10/2025 04:15 AM
45866 15.4 3.89 -5 54 44 56 0.00 -71 8 07/10/2025 04:00 AM
45865 15.4 3.89 -5 54 44 56 0.00 -71 8 07/10/2025 03:45 AM
45864 15.4 3.89 -5 54 44 56 0.00 -71 8 07/10/2025 03:30 AM
45863 15.4 3.89 -5 54 44 56 0.10 -70 8 07/10/2025 03:15 AM
45862 15.4 3.95 -5 54 44 55 0.10 -70 8 07/10/2025 03:00 AM
45861 15.4 3.95 -6 55 44 57 0.00 -70 8 07/10/2025 02:45 AM
45860 15.4 3.89 -5 56 44 58 0.00 -70 7 07/10/2025 02:30 AM
45859 15.4 3.89 -5 56 45 59 0.10 -71 8 07/10/2025 02:15 AM
45858 15.4 3.89 -5 56 45 60 0.00 -71 8 07/10/2025 02:00 AM
45857 15.4 3.89 -5 56 45 57 0.00 -71 9 07/10/2025 01:45 AM
45856 15.4 3.95 -5 56 45 58 0.00 -69 8 07/10/2025 01:30 AM
45855 15.4 3.95 -5 57 45 58 0.00 -70 8 07/10/2025 01:15 AM
45854 15.4 3.90 -5 58 45 60 0.00 -69 8 07/10/2025 01:00 AM
45853 15.4 3.90 -5 59 46 61 0.10 -69 8 07/10/2025 12:45 AM